TimeEST,TemperatureF,Dew PointF,Humidity,Sea Level PressureIn,VisibilityMPH,Wind Direction,Wind SpeedMPH,Gust SpeedMPH,PrecipitationIn,Events,Conditions,WindDirDegrees,DateUTC
12:54 AM,45.0,37.0,74,30.09,10.0,NNE,9.2,-,N/A,,Clear,30,2012-11-06 05:54:00
1:54 AM,44.1,36.0,73,30.08,10.0,NNE,9.2,-,N/A,,Clear,20,2012-11-06 06:54:00
2:54 AM,43.0,36.0,76,30.07,10.0,NNE,9.2,-,N/A,,Clear,20,2012-11-06 07:54:00
3:54 AM,42.1,36.0,79,30.06,10.0,NNE,9.2,-,N/A,,Clear,20,2012-11-06 08:54:00
4:54 AM,42.1,36.0,79,30.06,10.0,NNE,9.2,-,N/A,,Clear,30,2012-11-06 09:54:00
5:54 AM,43.0,36.0,76,30.05,10.0,NNE,12.7,-,N/A,,Clear,30,2012-11-06 10:54:00
6:54 AM,44.1,37.0,76,30.05,10.0,NNE,10.4,-,N/A,,Clear,20,2012-11-06 11:54:00
7:54 AM,45.0,37.9,76,30.06,10.0,NNE,10.4,-,N/A,,Mostly Cloudy,30,2012-11-06 12:54:00
8:54 AM,46.9,37.9,71,30.05,10.0,NNE,12.7,-,N/A,,Mostly Cloudy,20,2012-11-06 13:54:00
9:54 AM,46.9,39.0,74,30.05,10.0,North,8.1,-,N/A,,Mostly Cloudy,360,2012-11-06 14:54:00
10:54 AM,48.9,39.9,71,30.04,10.0,North,10.4,-,N/A,,Mostly Cloudy,10,2012-11-06 15:54:00
11:54 AM,48.9,39.9,71,29.99,10.0,North,11.5,-,N/A,,Overcast,10,2012-11-06 16:54:00
12:54 PM,46.9,42.1,83,29.99,5.0,NNE,11.5,-,0.02,Rain,Light Rain,20,2012-11-06 17:54:00
1:54 PM,46.9,43.0,86,29.97,4.0,North,10.4,-,0.09,Rain,Light Rain,350,2012-11-06 18:54:00
2:54 PM,46.9,44.1,90,29.95,4.0,NNE,10.4,-,0.09,Rain,Light Rain,30,2012-11-06 19:54:00
3:54 PM,48.0,45.0,89,29.93,6.0,North,11.5,-,0.04,Rain,Light Rain,360,2012-11-06 20:54:00
4:54 PM,48.0,45.0,89,29.91,7.0,NNE,13.8,-,0.02,Rain,Light Rain,20,2012-11-06 21:54:00
5:54 PM,48.0,45.0,89,29.89,6.0,NE,15.0,-,0.02,Rain,Light Rain,40,2012-11-06 22:54:00
6:06 PM,48.2,44.6,87,29.90,6.0,NE,15.0,-,0.01,Rain,Light Rain,40,2012-11-06 23:06:00
6:54 PM,48.0,45.0,89,29.91,5.0,North,11.5,-,0.05,Rain,Light Rain,360,2012-11-06 23:54:00
7:54 PM,46.9,44.1,90,29.86,8.0,North,17.3,-,0.04,Rain,Light Rain,10,2012-11-07 00:54:00
8:54 PM,45.0,42.1,90,29.88,10.0,NNW,18.4,23.0,N/A,,Overcast,340,2012-11-07 01:54:00
9:06 PM,44.6,42.8,93,29.89,10.0,NNW,16.1,-,N/A,,Overcast,340,2012-11-07 02:06:00
9:17 PM,44.6,42.8,93,29.89,10.0,North,13.8,-,N/A,,Overcast,350,2012-11-07 02:17:00
9:54 PM,44.1,41.0,89,29.88,10.0,North,13.8,-,N/A,,Overcast,350,2012-11-07 02:54:00
10:18 PM,44.6,41.0,87,29.87,10.0,North,12.7,20.7,N/A,,Overcast,350,2012-11-07 03:18:00
10:39 PM,44.6,41.0,87,29.87,10.0,NNW,9.2,-,N/A,,Overcast,330,2012-11-07 03:39:00
10:49 PM,44.6,41.0,87,29.87,10.0,NNW,15.0,-,N/A,,Overcast,340,2012-11-07 03:49:00
10:54 PM,45.0,41.0,86,29.86,10.0,NNW,12.7,-,N/A,,Overcast,340,2012-11-07 03:54:00
11:54 PM,44.1,39.9,85,29.83,10.0,NNW,16.1,-,N/A,,Overcast,330,2012-11-07 04:54:00